Wind_Speed
80 74 76 75 68 62 59 57 55 52 46 43 35 33 31 27 20 23 26 25 27 29 29 32 32 29 32
83 76 77 78 75 70 65 60 55 50 47 42 34 35 36 34 26 26 23 25 28 30 30 31 34 35 36
82 84 85 77 79 76 69 62 55 52 50 40 35 36 40 35 25 27 23 25 29 29 28 31 34 41 41
90 91 94 85 76 74 70 63 58 54 55 50 44 39 46 38 32 28 25 27 28 25 29 33 37 38 40
103 101 99 90 80 73 68 63 64 62 59 56 52 49 48 42 35 31 29 30 29 32 30 32 36 38 41
114 107 99 90 87 81 70 68 69 61 64 62 58 55 51 45 38 31 34 34 31 35 33 31 34 41 43
120 116 109 96 89 85 79 74 73 69 70 71 66 61 55 46 39 35 42 39 32 33 35 33 34 40 43
120 117 116 110 96 88 87 83 80 78 71 66 66 64 58 49 42 35 41 35 30 34 36 35 36 41 42
130 121 118 111 107 101 94 90 86 79 72 70 69 62 59 52 45 40 46 40 32 35 40 38 38 39 44
137 127 124 118 113 111 104 94 86 80 75 76 71 62 64 59 49 46 47 44 36 34 39 36 39 39 44
129 128 131 127 124 115 106 99 89 79 82 82 75 69 71 65 53 50 52 47 40 35 38 35 39 40 44
153 140 127 128 126 118 106 101 90 90 88 84 76 72 72 65 52 51 55 47 43 38 39 34 38 42 42
149 146 141 128 122 120 111 101 97 93 95 89 74 73 71 64 58 58 56 50 47 46 49 38 39 42 43
154 147 143 138 129 122 111 106 101 92 93 85 72 72 75 70 66 60 59 55 50 52 51 42 41 45 48
164 153 139 141 130 129 119 113 106 95 90 81 72 74 75 72 64 62 60 55 52 54 55 45 46 43 48
169 162 147 136 140 136 124 118 110 101 93 84 80 79 76 74 69 67 64 58 55 58 49 46 48 47 49
169 165 162 143 138 138 135 125 111 104 96 90 87 84 80 80 79 71 65 62 60 60 47 49 51 52 53
Wind_Direction
212 220 222 225 227 228 226 225 229 232 227 235 238 241 244 245 264 280 301 311 319 334 331 342 341 344 347
213 213 218 223 226 226 226 226 229 231 223 229 235 241 247 250 256 272 287 306 309 322 331 337 346 349 350
214 216 221 226 222 226 227 227 230 225 222 218 229 235 245 250 246 265 280 306 310 315 327 334 338 342 347
213 218 221 225 219 221 222 227 228 229 218 219 224 228 240 244 240 257 268 287 307 309 317 324 328 334 341
214 220 224 225 221 222 220 227 225 230 228 224 224 227 234 240 238 253 257 279 301 302 304 317 318 323 326
218 220 226 221 223 223 218 223 222 229 233 231 233 230 234 237 237 246 254 280 301 299 296 305 314 318 324
222 221 223 224 226 227 225 221 224 229 236 238 234 234 236 236 237 245 258 270 296 297 298 298 310 313 320
221 222 223 225 226 225 226 222 224 229 234 237 235 235 240 235 236 242 253 264 284 294 300 303 303 306 316
222 220 222 224 227 227 229 232 233 232 234 230 231 236 237 233 238 239 248 258 268 293 298 303 299 306 308
222 222 224 225 226 229 229 231 227 229 231 232 233 242 245 234 235 237 247 256 266 281 294 300 296 306 307
219 220 225 225 228 228 228 230 229 222 228 231 234 237 241 233 235 237 245 254 262 263 286 294 297 301 305
224 224 222 227 228 227 227 230 228 226 228 230 234 238 237 235 234 235 242 251 258 257 284 294 302 297 301
223 224 225 224 225 225 225 226 225 226 231 232 230 237 237 233 230 235 239 252 254 254 282 285 300 297 298
220 223 222 224 223 224 224 226 227 226 229 229 225 233 233 233 234 238 238 256 256 265 273 277 297 296 296
218 221 220 222 220 225 225 227 227 224 224 225 222 228 234 234 240 243 239 252 260 259 268 274 293 292 291
220 218 219 217 221 222 225 228 225 223 226 225 224 229 233 234 240 248 253 255 253 254 267 272 289 282 289
217 217 218 216 217 222 225 226 225 222 226 223 227 230 235 237 242 248 252 251 259 256 258 266 281 276 288
Height
10630 10639 10648 10658 10668 10678 10686 10694 10702 10711 10717 10723 10729 10732 10734 10736 10737 10737 10735 10734 10733 10730 10727 10723 10720 10716 10713
10615 10625 10634 10644 10653 10664 10673 10683 10693 10703 10709 10715 10722 10726 10727 10729 10732 10732 10732 10731 10730 10726 10723 10720 10716 10713 10709
10603 10611 10616 10624 10637 10650 10666 10674 10685 10692 10701 10705 10713 10717 10719 10722 10725 10727 10728 10727 10726 10723 10720 10716 10713 10710 10706
10586 10593 10600 10608 10627 10640 10655 10666 10677 10685 10689 10694 10701 10707 10709 10714 10719 10721 10721 10722 10721 10718 10717 10713 10710 10706 10703
10570 10578 10583 10598 10620 10633 10645 10654 10662 10674 10680 10684 10690 10696 10700 10705 10711 10714 10715 10716 10716 10713 10712 10710 10705 10701 10699
10552 10563 10575 10591 10602 10617 10630 10640 10653 10668 10670 10676 10680 10686 10690 10695 10704 10709 10708 10710 10711 10708 10706 10705 10702 10696 10694
10532 10550 10561 10575 10588 10605 10617 10627 10638 10646 10653 10661 10671 10676 10683 10690 10697 10702 10701 10703 10706 10703 10700 10700 10697 10692 10690
10512 10532 10545 10559 10575 10589 10597 10605 10618 10628 10641 10656 10664 10668 10677 10683 10690 10695 10693 10697 10700 10697 10694 10694 10693 10688 10685
10489 10510 10524 10540 10554 10564 10579 10594 10610 10623 10636 10643 10648 10657 10666 10674 10682 10686 10682 10689 10691 10691 10688 10687 10686 10683 10678
10466 10490 10504 10522 10533 10547 10565 10581 10595 10612 10625 10629 10638 10650 10655 10664 10671 10676 10676 10679 10683 10685 10680 10680 10678 10678 10672
10441 10464 10482 10501 10516 10531 10552 10564 10587 10602 10604 10613 10622 10634 10641 10654 10662 10667 10667 10670 10675 10676 10672 10673 10672 10671 10667
10421 10445 10465 10483 10501 10518 10536 10547 10570 10580 10584 10600 10611 10622 10632 10644 10655 10658 10656 10662 10666 10667 10665 10665 10665 10664 10661
10401 10429 10450 10470 10483 10495 10513 10531 10544 10560 10569 10585 10602 10609 10624 10634 10641 10644 10647 10653 10656 10657 10657 10657 10658 10658 10654
10379 10404 10424 10441 10463 10477 10497 10514 10529 10550 10555 10571 10592 10597 10611 10620 10624 10630 10640 10643 10646 10648 10647 10650 10650 10651 10646
10360 10381 10394 10422 10443 10460 10481 10494 10516 10531 10542 10560 10579 10583 10594 10607 10613 10621 10629 10632 10634 10637 10639 10641 10643 10642 10638
10325 10353 10371 10397 10421 10443 10461 10479 10501 10515 10529 10547 10561 10569 10578 10593 10603 10608 10617 10623 10622 10626 10632 10633 10633 10631 10630
10292 10322 10343 10371 10397 10420 10445 10465 10482 10498 10515 10531 10542 10554 10567 10579 10588 10594 10602 10608 10611 10617 10623 10623 10622 10620 10621